DAL465 KLAX-PHNL

Flight info

Callsign DAL465
Flight time 2h 59m
Altitude 38000
Route SUMMR2 RIZIN MQO AUDIA ADUMM CUNDU BILLO R464 BITTA MAGGI3
Aircraft B77L/H-SDE1E2E3FGHIJ2J3J4J5M1RWXY/LB1D1

Departure

Time 2026-04-20 03:49
Airport Los Angeles International Airport (KLAX)

Arrival

Time 2026-04-20 06:49
Airport Daniel K. Inouye International Airport (PHNL)
Time Latitude Longitude Altitude Speed Heading
2026-04-20 03:22 33.94521 -118.41144 100 ft 0 kts 97°
2026-04-20 03:40 33.94523 -118.41163 98 ft 2 kts 97°
2026-04-20 03:40 33.94525 -118.41183 97 ft 2 kts 97°
2026-04-20 03:40 33.94527 -118.41202 96 ft 2 kts 97°
2026-04-20 03:41 33.94529 -118.41221 96 ft 2 kts 93°
2026-04-20 03:41 33.94528 -118.41241 95 ft 2 kts 54°
2026-04-20 03:41 33.94517 -118.41254 96 ft 2 kts 16°
2026-04-20 03:41 33.94506 -118.41255 97 ft 0 kts 352°
2026-04-20 03:43 33.94509 -118.41256 97 ft 2 kts 352°
2026-04-20 03:43 33.94523 -118.41258 96 ft 4 kts 352°
2026-04-20 03:44 33.94572 -118.41266 100 ft 10 kts 352°
2026-04-20 03:44 33.94593 -118.41270 98 ft 0 kts 352°
2026-04-20 03:44 33.94595 -118.41270 98 ft 2 kts 352°
2026-04-20 03:44 33.94632 -118.41276 98 ft 8 kts 352°
2026-04-20 03:45 33.94708 -118.41287 98 ft 14 kts 354°
2026-04-20 03:45 33.94795 -118.41240 102 ft 15 kts 63°
2026-04-20 03:45 33.94813 -118.41109 99 ft 15 kts 84°
2026-04-20 03:45 33.94825 -118.40963 101 ft 20 kts 84°
2026-04-20 03:46 33.94841 -118.40781 99 ft 24 kts 83°
2026-04-20 03:46 33.94857 -118.40652 99 ft 11 kts 81°
2026-04-20 03:46 33.94870 -118.40540 99 ft 16 kts 82°
2026-04-20 03:46 33.94883 -118.40394 98 ft 17 kts 84°
2026-04-20 03:47 33.94898 -118.40240 100 ft 21 kts 82°
2026-04-20 03:47 33.94916 -118.40084 101 ft 20 kts 82°
2026-04-20 03:47 33.94932 -118.39971 97 ft 11 kts 71°
2026-04-20 03:47 33.94986 -118.39915 100 ft 11 kts
2026-04-20 03:48 33.95029 -118.39936 100 ft 6 kts 307°
2026-04-20 03:48 33.95036 -118.39988 101 ft 7 kts 265°
2026-04-20 03:48 33.95031 -118.40049 98 ft 7 kts 264°
2026-04-20 03:48 33.95018 -118.40193 105 ft 44 kts 263°
2026-04-20 03:49 33.94947 -118.40879 104 ft 118 kts 263°
2026-04-20 03:49 33.94813 -118.42088 210 ft 163 kts 262°
2026-04-20 03:49 33.94670 -118.43447 840 ft 166 kts 262°
2026-04-20 03:49 33.94544 -118.44829 1611 ft 164 kts 263°
2026-04-20 03:50 33.94445 -118.46187 2314 ft 165 kts 261°
2026-04-20 03:50 33.94296 -118.47675 2571 ft 193 kts 265°
2026-04-20 03:50 33.94239 -118.49405 2824 ft 221 kts 266°
2026-04-20 03:50 33.94200 -118.51373 3034 ft 251 kts 265°
2026-04-20 03:51 33.94049 -118.53557 3614 ft 266 kts 263°
2026-04-20 03:51 33.93859 -118.55783 4462 ft 271 kts 262°
2026-04-20 03:51 33.93670 -118.58063 4942 ft 274 kts 262°
2026-04-20 03:51 33.93485 -118.60361 5016 ft 279 kts 262°
2026-04-20 03:52 33.93300 -118.62691 5694 ft 280 kts 262°
2026-04-20 03:52 33.93117 -118.65017 6661 ft 279 kts 262°
2026-04-20 03:52 33.92938 -118.67326 7534 ft 281 kts 262°
2026-04-20 03:52 33.92756 -118.69675 8416 ft 283 kts 262°
2026-04-20 03:53 33.92571 -118.72047 9286 ft 286 kts 262°
2026-04-20 03:53 33.92385 -118.74449 10106 ft 289 kts 262°
2026-04-20 03:53 33.92192 -118.76910 10640 ft 305 kts 262°
2026-04-20 03:53 33.91997 -118.79353 10827 ft 331 kts 262°
2026-04-20 03:54 33.91768 -118.82231 11036 ft 359 kts 262°
2026-04-20 03:54 33.91630 -118.85303 11554 ft 375 kts 268°
2026-04-20 03:54 33.91733 -118.88486 12020 ft 383 kts 271°
2026-04-20 03:54 33.91899 -118.91701 11987 ft 384 kts 271°
2026-04-20 03:55 33.92036 -118.94908 11995 ft 383 kts 270°
2026-04-20 03:55 33.92173 -118.98106 11996 ft 383 kts 272°
2026-04-20 03:55 33.92422 -119.01180 11993 ft 384 kts 274°
2026-04-20 03:55 33.92740 -119.04384 11992 ft 384 kts 274°
2026-04-20 03:56 33.93073 -119.07575 11989 ft 384 kts 275°
2026-04-20 03:56 33.93403 -119.10761 11988 ft 384 kts 274°
2026-04-20 03:56 33.93727 -119.13955 11987 ft 384 kts 274°
2026-04-20 03:56 33.94044 -119.17149 11987 ft 384 kts 274°
2026-04-20 03:57 33.94355 -119.20350 11986 ft 384 kts 274°
2026-04-20 03:57 33.94657 -119.23496 11988 ft 384 kts 274°
2026-04-20 03:57 33.94960 -119.26694 11997 ft 384 kts 274°
2026-04-20 03:57 33.95261 -119.29887 11990 ft 384 kts 274°
2026-04-20 03:58 33.95561 -119.33083 11985 ft 384 kts 274°
2026-04-20 03:58 33.95860 -119.36280 11985 ft 383 kts 274°
2026-04-20 03:58 33.96157 -119.39465 11989 ft 383 kts 274°
2026-04-20 03:58 33.96453 -119.42658 11991 ft 383 kts 274°
2026-04-20 03:59 33.96749 -119.45853 11991 ft 383 kts 274°
2026-04-20 03:59 33.97044 -119.49039 11993 ft 383 kts 274°
2026-04-20 03:59 33.97337 -119.52226 11992 ft 383 kts 274°
2026-04-20 03:59 33.97630 -119.55410 11997 ft 383 kts 274°
2026-04-20 04:00 33.97922 -119.58598 11995 ft 382 kts 274°
2026-04-20 04:00 33.98212 -119.61781 11996 ft 382 kts 273°
2026-04-20 04:00 33.98503 -119.64969 11998 ft 382 kts 273°
2026-04-20 04:00 33.98792 -119.68155 12003 ft 382 kts 273°
2026-04-20 04:01 33.99075 -119.71298 11994 ft 382 kts 273°
2026-04-20 04:01 33.99362 -119.74468 12010 ft 381 kts 273°
2026-04-20 04:01 33.99648 -119.77643 12010 ft 382 kts 273°
2026-04-20 04:01 33.99935 -119.80835 12006 ft 383 kts 273°
2026-04-20 04:02 34.00217 -119.83996 12016 ft 384 kts 273°
2026-04-20 04:02 34.00502 -119.87196 12007 ft 383 kts 273°
2026-04-20 04:02 34.00787 -119.90383 12006 ft 383 kts 273°
2026-04-20 04:02 34.01071 -119.93582 12000 ft 383 kts 273°
2026-04-20 04:03 34.01353 -119.96769 12000 ft 382 kts 273°
2026-04-20 04:03 34.01635 -119.99960 12002 ft 382 kts 273°
2026-04-20 04:03 34.01901 -120.02994 12003 ft 382 kts 273°
2026-04-20 04:03 34.02179 -120.06171 12011 ft 381 kts 273°
2026-04-20 04:04 34.02457 -120.09356 12013 ft 382 kts 273°
2026-04-20 04:04 34.02735 -120.12539 12013 ft 382 kts 273°
2026-04-20 04:04 34.03011 -120.15717 12012 ft 381 kts 273°
2026-04-20 04:04 34.03283 -120.18861 12011 ft 381 kts 273°
2026-04-20 04:05 34.03561 -120.22083 12007 ft 381 kts 273°
2026-04-20 04:05 34.03831 -120.25214 12009 ft 381 kts 273°
2026-04-20 04:05 34.04107 -120.28432 12008 ft 381 kts 273°
2026-04-20 04:05 34.04375 -120.31567 12012 ft 381 kts 273°
2026-04-20 04:06 34.04646 -120.34742 12001 ft 381 kts 273°
2026-04-20 04:06 34.04914 -120.37916 12018 ft 380 kts 273°
2026-04-20 04:06 34.05184 -120.41094 12017 ft 380 kts 273°
2026-04-20 04:06 34.05452 -120.44262 12018 ft 380 kts 273°
2026-04-20 04:07 34.05720 -120.47436 12016 ft 381 kts 273°
2026-04-20 04:07 34.05988 -120.50620 12014 ft 381 kts 273°
2026-04-20 04:07 34.06255 -120.53805 12010 ft 382 kts 272°
2026-04-20 04:07 34.06521 -120.56992 12013 ft 382 kts 272°
2026-04-20 04:08 34.06786 -120.60188 12089 ft 384 kts 272°
2026-04-20 04:08 34.07052 -120.63407 13004 ft 387 kts 272°
2026-04-20 04:08 34.07319 -120.66644 14052 ft 389 kts 272°
2026-04-20 04:08 34.07587 -120.69902 15004 ft 391 kts 272°
2026-04-20 04:09 34.07853 -120.73144 15925 ft 394 kts 272°
2026-04-20 04:09 34.08123 -120.76448 16796 ft 398 kts 273°
2026-04-20 04:09 34.08396 -120.79794 17684 ft 402 kts 273°
2026-04-20 04:09 34.08670 -120.83166 18502 ft 406 kts 273°
2026-04-20 04:10 34.08945 -120.86567 19242 ft 409 kts 273°
2026-04-20 04:10 34.09223 -120.89999 19996 ft 412 kts 273°
2026-04-20 04:10 34.09500 -120.93450 20746 ft 415 kts 273°
2026-04-20 04:10 34.09780 -120.96932 21487 ft 418 kts 273°
2026-04-20 04:11 34.10048 -121.00280 22202 ft 420 kts 273°
2026-04-20 04:11 34.10328 -121.03803 22911 ft 424 kts 273°
2026-04-20 04:11 34.10610 -121.07357 23587 ft 427 kts 273°
2026-04-20 04:11 34.10893 -121.10946 24158 ft 431 kts 273°
2026-04-20 04:12 34.11177 -121.14555 24729 ft 434 kts 273°
2026-04-20 04:12 34.11463 -121.18197 25303 ft 437 kts 273°
2026-04-20 04:12 34.11750 -121.21873 25883 ft 441 kts 273°
2026-04-20 04:12 34.12034 -121.25521 26441 ft 444 kts 273°
2026-04-20 04:13 34.12323 -121.29237 27009 ft 446 kts 273°
2026-04-20 04:13 34.12612 -121.32989 27556 ft 450 kts 274°
2026-04-20 04:13 34.12903 -121.36765 28070 ft 453 kts 274°
2026-04-20 04:13 34.13194 -121.40568 28569 ft 456 kts 274°
2026-04-20 04:14 34.13486 -121.44396 29067 ft 459 kts 274°
2026-04-20 04:14 34.13680 -121.46946 29369 ft 461 kts 274°
2026-04-20 04:14 34.13974 -121.50822 29817 ft 464 kts 274°
2026-04-20 04:14 34.14268 -121.54717 30322 ft 464 kts 274°
2026-04-20 04:15 34.14652 -121.59830 31109 ft 459 kts 274°
2026-04-20 04:15 34.14939 -121.63658 31655 ft 457 kts 274°
2026-04-20 04:15 34.15131 -121.66243 32008 ft 456 kts 274°
2026-04-20 04:15 34.15413 -121.70042 32508 ft 454 kts 274°
2026-04-20 04:16 34.15693 -121.73839 33005 ft 453 kts 274°
2026-04-20 04:16 34.15968 -121.77574 33492 ft 451 kts 274°
2026-04-20 04:16 34.16244 -121.81338 33986 ft 449 kts 274°
2026-04-20 04:16 34.16517 -121.85091 34390 ft 448 kts 274°
2026-04-20 04:17 34.16788 -121.88826 34788 ft 446 kts 274°
2026-04-20 04:17 34.17057 -121.92550 35202 ft 444 kts 274°
2026-04-20 04:17 34.17324 -121.96252 35640 ft 441 kts 274°
2026-04-20 04:17 34.17588 -121.99939 36007 ft 440 kts 274°
2026-04-20 04:18 34.18105 -122.07205 36003 ft 443 kts 274°
2026-04-20 04:18 34.18626 -122.14577 36006 ft 438 kts 274°
2026-04-20 04:19 34.19140 -122.21915 36005 ft 437 kts 273°
2026-04-20 04:19 34.19644 -122.29175 36006 ft 436 kts 273°
2026-04-20 04:20 34.20147 -122.36488 36012 ft 436 kts 273°
2026-04-20 04:20 34.20646 -122.43807 35999 ft 437 kts 273°
2026-04-20 04:21 34.21141 -122.51128 36003 ft 438 kts 273°
2026-04-20 04:21 34.21633 -122.58465 36015 ft 438 kts 273°
2026-04-20 04:22 34.22121 -122.65804 36001 ft 438 kts 273°
2026-04-20 04:22 34.22604 -122.73143 35998 ft 438 kts 272°
2026-04-20 04:23 34.23079 -122.80441 35997 ft 438 kts 272°
2026-04-20 04:23 34.23554 -122.87779 35998 ft 437 kts 272°
2026-04-20 04:24 34.24023 -122.95110 35998 ft 437 kts 272°
2026-04-20 04:24 34.24478 -123.02278 35992 ft 436 kts 272°
2026-04-20 04:25 34.24865 -123.09594 36001 ft 435 kts 269°
2026-04-20 04:25 34.24593 -123.16881 35998 ft 434 kts 265°
2026-04-20 04:26 34.24242 -123.24158 36001 ft 433 kts 265°
2026-04-20 04:26 34.23901 -123.31378 35993 ft 433 kts 265°
2026-04-20 04:27 34.23564 -123.38638 35986 ft 432 kts 265°
2026-04-20 04:27 34.23227 -123.45888 35987 ft 431 kts 265°
2026-04-20 04:28 34.22887 -123.53127 35984 ft 431 kts 265°
2026-04-20 04:28 34.22542 -123.60365 35984 ft 431 kts 265°
2026-04-20 04:29 34.22193 -123.67595 35983 ft 431 kts 265°
2026-04-20 04:29 34.21843 -123.74777 35981 ft 431 kts 265°
2026-04-20 04:30 34.21484 -123.82044 35983 ft 430 kts 265°
2026-04-20 04:30 34.21126 -123.89210 35983 ft 430 kts 265°
2026-04-20 04:31 34.20760 -123.96431 35983 ft 430 kts 265°
2026-04-20 04:31 34.20399 -124.03487 35991 ft 430 kts 265°
2026-04-20 04:32 34.20026 -124.10697 35981 ft 430 kts 265°
2026-04-20 04:32 34.19649 -124.17903 35965 ft 429 kts 265°
2026-04-20 04:33 34.19268 -124.25090 35979 ft 428 kts 265°
2026-04-20 04:33 34.18884 -124.32273 35973 ft 428 kts 265°
2026-04-20 04:34 34.18496 -124.39438 35973 ft 427 kts 265°
2026-04-20 04:34 34.18105 -124.46597 35968 ft 427 kts 265°
2026-04-20 04:35 34.17709 -124.53744 35953 ft 426 kts 265°
2026-04-20 04:35 34.17310 -124.60887 35961 ft 426 kts 265°
2026-04-20 04:36 34.16708 -124.71534 35961 ft 425 kts 265°
2026-04-20 04:37 34.16299 -124.78664 35952 ft 425 kts 265°
2026-04-20 04:37 34.15887 -124.85784 35966 ft 425 kts 265°
2026-04-20 04:38 34.15471 -124.92897 35948 ft 424 kts 265°
2026-04-20 04:38 34.15051 -124.99998 35952 ft 423 kts 265°
2026-04-20 04:39 34.14637 -125.06944 35946 ft 423 kts 265°
2026-04-20 04:39 34.14211 -125.14015 35943 ft 422 kts 265°
2026-04-20 04:40 34.13785 -125.21029 35941 ft 421 kts 265°
2026-04-20 04:40 34.13351 -125.28093 35940 ft 421 kts 265°
2026-04-20 04:41 34.12914 -125.35151 35931 ft 421 kts 265°
2026-04-20 04:41 34.12473 -125.42196 35930 ft 421 kts 265°
2026-04-20 04:42 34.12028 -125.49247 35924 ft 421 kts 265°
2026-04-20 04:42 34.11582 -125.56254 35922 ft 421 kts 265°
2026-04-20 04:43 34.11126 -125.63352 35952 ft 421 kts 264°
2026-04-20 04:43 34.10669 -125.70398 35926 ft 421 kts 264°
2026-04-20 04:44 34.10209 -125.77432 35914 ft 420 kts 264°
2026-04-20 04:44 34.09746 -125.84449 35914 ft 419 kts 264°
2026-04-20 04:45 34.09282 -125.91412 35912 ft 418 kts 264°
2026-04-20 04:45 34.08813 -125.98403 35909 ft 418 kts 264°
2026-04-20 04:46 34.08350 -126.05242 35909 ft 417 kts 264°
2026-04-20 04:46 34.07873 -126.12215 35903 ft 417 kts 264°
2026-04-20 04:47 34.07392 -126.19206 35904 ft 417 kts 264°
2026-04-20 04:47 34.06911 -126.26136 35913 ft 417 kts 264°
2026-04-20 04:48 34.06422 -126.33124 35912 ft 418 kts 264°
2026-04-20 04:48 34.05929 -126.40111 35898 ft 418 kts 264°
2026-04-20 04:49 34.05432 -126.47090 35910 ft 418 kts 264°
2026-04-20 04:49 34.04932 -126.54062 35896 ft 417 kts 264°
2026-04-20 04:50 34.04429 -126.61025 35895 ft 417 kts 264°
2026-04-20 04:50 34.03921 -126.67996 35898 ft 416 kts 264°
2026-04-20 04:51 34.03414 -126.74897 35913 ft 416 kts 264°
2026-04-20 04:51 34.02900 -126.81840 35901 ft 416 kts 264°
2026-04-20 04:52 34.02383 -126.88778 35904 ft 415 kts 264°
2026-04-20 04:52 34.01861 -126.95725 35910 ft 415 kts 264°
2026-04-20 04:53 34.01347 -127.02510 35906 ft 416 kts 264°
2026-04-20 04:53 34.00818 -127.09447 35905 ft 416 kts 264°
2026-04-20 04:54 34.00284 -127.16394 35908 ft 416 kts 264°
2026-04-20 04:54 33.99746 -127.23346 35914 ft 416 kts 264°
2026-04-20 04:55 33.99208 -127.30239 35912 ft 415 kts 264°
2026-04-20 04:55 33.98665 -127.37161 35910 ft 414 kts 264°
2026-04-20 04:56 33.98118 -127.44070 35911 ft 413 kts 264°
2026-04-20 04:56 33.97568 -127.50964 35921 ft 413 kts 264°
2026-04-20 04:57 33.97019 -127.57813 35909 ft 412 kts 264°
2026-04-20 04:57 33.96463 -127.64688 35908 ft 412 kts 264°
2026-04-20 04:58 33.95903 -127.71567 35905 ft 412 kts 264°
2026-04-20 04:58 33.95341 -127.78430 35909 ft 412 kts 264°
2026-04-20 04:59 33.94869 -127.84146 35914 ft 413 kts 264°
2026-04-20 04:59 33.94298 -127.91027 35912 ft 414 kts 264°
2026-04-20 05:00 33.93721 -127.97940 35921 ft 415 kts 264°
2026-04-20 05:00 33.93154 -128.04688 35918 ft 414 kts 264°
2026-04-20 05:01 33.92568 -128.11596 35915 ft 414 kts 264°
2026-04-20 05:01 33.91983 -128.18456 35913 ft 414 kts 264°
2026-04-20 05:02 33.91391 -128.25354 35913 ft 414 kts 264°
2026-04-20 05:02 33.90796 -128.32242 35912 ft 414 kts 264°
2026-04-20 05:03 33.90197 -128.39134 35915 ft 414 kts 264°
2026-04-20 05:03 33.89594 -128.46025 35915 ft 414 kts 264°
2026-04-20 05:04 33.88987 -128.52916 35921 ft 414 kts 263°
2026-04-20 05:04 33.88380 -128.59763 35914 ft 414 kts 263°
2026-04-20 05:05 33.87765 -128.66651 35914 ft 414 kts 263°
2026-04-20 05:05 33.87147 -128.73548 35915 ft 414 kts 263°
2026-04-20 05:06 33.86517 -128.80446 35914 ft 414 kts 263°
2026-04-20 05:06 33.85827 -128.87293 35913 ft 415 kts 263°
2026-04-20 05:07 33.85114 -128.94178 35910 ft 415 kts 263°
2026-04-20 05:07 33.84414 -129.00942 35912 ft 416 kts 263°
2026-04-20 05:08 33.83700 -129.07847 35916 ft 416 kts 263°
2026-04-20 05:08 33.82984 -129.14756 35913 ft 416 kts 263°
2026-04-20 05:09 33.82264 -129.21666 35917 ft 416 kts 263°
2026-04-20 05:09 33.81540 -129.28579 35915 ft 417 kts 263°
2026-04-20 05:10 33.80812 -129.35486 35917 ft 417 kts 263°
2026-04-20 05:10 33.80084 -129.42358 35953 ft 416 kts 263°
2026-04-20 05:11 33.79350 -129.49255 35918 ft 415 kts 263°
2026-04-20 05:11 33.78614 -129.56126 35912 ft 413 kts 263°
2026-04-20 05:12 33.77877 -129.62975 35916 ft 412 kts 263°
2026-04-20 05:12 33.77137 -129.69811 35927 ft 412 kts 263°
2026-04-20 05:13 33.76395 -129.76631 35922 ft 412 kts 263°
2026-04-20 05:13 33.75648 -129.83465 35918 ft 412 kts 263°
2026-04-20 05:14 33.74901 -129.90259 35920 ft 413 kts 263°
2026-04-20 05:14 33.74145 -129.97104 35929 ft 413 kts 263°
2026-04-20 05:15 33.73399 -130.03814 35906 ft 414 kts 263°
2026-04-20 05:15 33.72634 -130.10671 35922 ft 414 kts 263°
2026-04-20 05:16 33.71862 -130.17549 35951 ft 415 kts 263°
2026-04-20 05:16 33.71086 -130.24431 35926 ft 415 kts 263°
2026-04-20 05:17 33.70306 -130.31310 35926 ft 415 kts 263°
2026-04-20 05:17 33.69523 -130.38189 35920 ft 415 kts 263°
2026-04-20 05:18 33.68742 -130.45005 35917 ft 415 kts 263°
2026-04-20 05:18 33.67952 -130.51871 35922 ft 415 kts 263°
2026-04-20 05:19 33.67158 -130.58738 35929 ft 415 kts 263°
2026-04-20 05:19 33.66359 -130.65611 35923 ft 416 kts 263°
2026-04-20 05:20 33.65554 -130.72507 35920 ft 416 kts 263°
2026-04-20 05:20 33.64746 -130.79391 35923 ft 416 kts 263°
2026-04-20 05:21 33.63933 -130.86284 35925 ft 417 kts 263°
2026-04-20 05:21 33.63122 -130.93120 35920 ft 416 kts 263°
2026-04-20 05:22 33.62306 -130.99978 35921 ft 414 kts 263°
2026-04-20 05:22 33.61507 -131.06659 35925 ft 413 kts 263°
2026-04-20 05:23 33.60689 -131.13462 35910 ft 411 kts 263°
2026-04-20 05:23 33.59869 -131.20248 35922 ft 411 kts 263°
2026-04-20 05:24 33.59044 -131.27047 35925 ft 412 kts 263°
2026-04-20 05:24 33.58214 -131.33849 35924 ft 413 kts 263°
2026-04-20 05:25 33.57377 -131.40683 35929 ft 414 kts 263°
2026-04-20 05:25 33.56537 -131.47509 35929 ft 415 kts 263°
2026-04-20 05:26 33.55695 -131.54320 35923 ft 416 kts 263°
2026-04-20 05:26 33.54841 -131.61192 35944 ft 416 kts 262°
2026-04-20 05:27 33.53983 -131.68070 35930 ft 416 kts 262°
2026-04-20 05:27 33.53123 -131.74924 35928 ft 416 kts 262°
2026-04-20 05:28 33.52260 -131.81778 35922 ft 415 kts 262°
2026-04-20 05:28 33.51400 -131.88576 35932 ft 415 kts 262°
2026-04-20 05:29 33.50530 -131.95418 35932 ft 415 kts 262°
2026-04-20 05:29 33.49676 -132.02110 35920 ft 415 kts 262°
2026-04-20 05:30 33.48799 -132.08947 35935 ft 415 kts 262°
2026-04-20 05:30 33.47917 -132.15793 35932 ft 416 kts 262°
2026-04-20 05:31 33.47030 -132.22652 35929 ft 417 kts 262°
2026-04-20 05:31 33.46136 -132.29526 35957 ft 418 kts 262°
2026-04-20 05:32 33.45238 -132.36404 35934 ft 418 kts 262°
2026-04-20 05:32 33.44342 -132.43241 35926 ft 418 kts 262°
2026-04-20 05:33 33.43435 -132.50123 35934 ft 418 kts 262°
2026-04-20 05:33 33.42526 -132.56997 35938 ft 418 kts 262°
2026-04-20 05:34 33.41611 -132.63884 35925 ft 419 kts 262°
2026-04-20 05:34 33.40232 -132.74208 35941 ft 419 kts 262°
2026-04-20 05:35 33.39305 -132.81109 35940 ft 420 kts 262°
2026-04-20 05:35 33.38373 -132.88020 35937 ft 420 kts 262°
2026-04-20 05:36 33.37444 -132.94877 35938 ft 420 kts 262°
2026-04-20 05:36 33.36522 -133.01648 35948 ft 420 kts 262°
2026-04-20 05:37 33.35582 -133.08527 35938 ft 418 kts 262°
2026-04-20 05:37 33.34641 -133.15389 35935 ft 417 kts 262°
2026-04-20 05:38 33.33698 -133.22236 35941 ft 417 kts 262°
2026-04-20 05:38 33.32756 -133.29039 35940 ft 417 kts 262°
2026-04-20 05:39 33.31805 -133.35886 35940 ft 417 kts 262°
2026-04-20 05:39 33.30849 -133.42740 35940 ft 418 kts 262°
2026-04-20 05:40 33.29888 -133.49607 35937 ft 419 kts 262°
2026-04-20 05:40 33.28920 -133.56494 35945 ft 421 kts 262°
2026-04-20 05:41 33.27860 -133.63388 35956 ft 423 kts 259°
2026-04-20 05:41 33.26262 -133.70118 35946 ft 424 kts 257°
2026-04-20 05:42 33.24626 -133.76876 35946 ft 423 kts 257°
2026-04-20 05:42 33.22999 -133.83626 35927 ft 422 kts 257°
2026-04-20 05:43 33.21378 -133.90362 35944 ft 422 kts 257°
2026-04-20 05:43 33.19756 -133.97094 35953 ft 422 kts 257°
2026-04-20 05:44 33.18163 -134.03688 35933 ft 422 kts 257°
2026-04-20 05:44 33.16530 -134.10433 35947 ft 423 kts 257°
2026-04-20 05:45 33.15169 -134.16042 35951 ft 424 kts 257°
2026-04-20 05:45 33.13254 -134.23910 35940 ft 425 kts 257°
2026-04-20 05:46 33.11599 -134.30689 35962 ft 426 kts 257°
2026-04-20 05:46 33.10217 -134.36339 35963 ft 427 kts 257°
2026-04-20 05:47 33.08547 -134.43147 35940 ft 428 kts 257°
2026-04-20 05:47 33.06870 -134.49969 35953 ft 429 kts 256°
2026-04-20 05:48 33.05183 -134.56810 35997 ft 430 kts 257°
2026-04-20 05:48 33.03494 -134.63647 35956 ft 430 kts 257°
2026-04-20 05:49 33.01802 -134.70471 35963 ft 429 kts 257°
2026-04-20 05:49 33.00111 -134.77276 35962 ft 428 kts 257°
2026-04-20 05:50 32.98422 -134.84057 35963 ft 427 kts 257°
2026-04-20 05:50 32.96727 -134.90843 35965 ft 427 kts 257°
2026-04-20 05:51 32.95031 -134.97621 35965 ft 426 kts 256°
2026-04-20 05:51 32.93368 -135.04245 35954 ft 427 kts 256°
2026-04-20 05:52 32.91665 -135.11015 35967 ft 427 kts 256°
2026-04-20 05:52 32.89954 -135.17801 35962 ft 429 kts 256°
2026-04-20 05:53 32.88243 -135.24568 35974 ft 431 kts 256°
2026-04-20 05:53 32.86509 -135.31406 35978 ft 432 kts 256°
2026-04-20 05:54 32.84765 -135.38268 35974 ft 434 kts 256°
2026-04-20 05:54 32.83016 -135.45133 35962 ft 434 kts 256°
2026-04-20 05:55 32.81256 -135.52020 35984 ft 435 kts 256°
2026-04-20 05:55 32.79491 -135.58911 35993 ft 436 kts 256°
2026-04-20 05:56 32.77723 -135.65795 35980 ft 435 kts 256°
2026-04-20 05:56 32.75963 -135.72633 35965 ft 435 kts 256°
2026-04-20 05:57 32.74191 -135.79499 35994 ft 435 kts 256°
2026-04-20 05:57 32.72416 -135.86361 35983 ft 435 kts 256°
2026-04-20 05:58 32.70634 -135.93231 35988 ft 435 kts 256°
2026-04-20 05:58 32.68858 -136.00065 35989 ft 435 kts 256°
2026-04-20 05:59 32.67095 -136.06829 35996 ft 435 kts 256°
2026-04-20 05:59 32.65296 -136.13716 35992 ft 436 kts 256°
2026-04-20 06:00 32.63504 -136.20556 36008 ft 437 kts 256°
2026-04-20 06:00 32.61698 -136.27435 35994 ft 437 kts 256°
2026-04-20 06:01 32.59883 -136.34329 36004 ft 437 kts 255°
2026-04-20 06:01 32.58075 -136.41179 35997 ft 438 kts 255°
2026-04-20 06:02 32.56254 -136.48064 36002 ft 438 kts 255°
2026-04-20 06:02 32.54427 -136.54955 35999 ft 438 kts 255°
2026-04-20 06:03 32.52591 -136.61860 36014 ft 439 kts 255°
2026-04-20 06:03 32.50751 -136.68765 36012 ft 440 kts 255°
2026-04-20 06:04 32.48905 -136.75676 36013 ft 440 kts 255°
2026-04-20 06:04 32.47051 -136.82598 36016 ft 441 kts 255°
2026-04-20 06:05 32.45203 -136.89479 36016 ft 441 kts 255°
2026-04-20 06:05 32.43341 -136.96398 36020 ft 441 kts 255°
2026-04-20 06:06 32.41512 -137.03177 36017 ft 440 kts 255°
2026-04-20 06:06 32.39648 -137.10072 36008 ft 440 kts 255°
2026-04-20 06:07 32.37778 -137.16970 36023 ft 440 kts 255°
2026-04-20 06:07 32.35903 -137.23869 36022 ft 440 kts 255°
2026-04-20 06:08 32.34024 -137.30769 36025 ft 441 kts 255°
2026-04-20 06:08 32.32145 -137.37652 36290 ft 444 kts 255°
2026-04-20 06:09 32.31195 -137.41128 36660 ft 443 kts 255°
2026-04-20 06:09 32.30248 -137.44583 37104 ft 440 kts 254°
2026-04-20 06:09 32.29305 -137.48016 37551 ft 437 kts 254°
2026-04-20 06:09 32.28367 -137.51433 37941 ft 436 kts 254°
2026-04-20 06:10 32.26485 -137.58278 38027 ft 439 kts 254°
2026-04-20 06:10 32.19447 -137.83730 38015 ft 430 kts 254°
2026-04-20 06:11 31.90644 -138.85648 38216 ft 436 kts 253°
2026-04-20 06:11 31.75746 -139.37060 38179 ft 447 kts 253°
2026-04-20 06:11 31.59408 -139.92362 38141 ft 451 kts 252°
2026-04-20 06:12 31.26762 -141.00031 38114 ft 453 kts 252°
2026-04-20 06:12 31.08036 -141.51883 38269 ft 462 kts 243°
2026-04-20 06:12 30.84480 -142.02241 38115 ft 451 kts 246°
2026-04-20 06:13 30.38362 -143.01109 38165 ft 447 kts 245°
2026-04-20 06:13 29.92076 -143.97897 38172 ft 442 kts 246°
2026-04-20 06:14 29.45066 -144.93978 38193 ft 440 kts 245°
2026-04-20 06:14 28.99260 -145.85372 38245 ft 437 kts 245°
2026-04-20 06:15 28.52804 -146.75999 38269 ft 435 kts 244°
2026-04-20 06:15 28.04382 -147.68421 38209 ft 434 kts 243°
2026-04-20 06:16 27.55657 -148.59450 38176 ft 434 kts 242°
2026-04-20 06:16 27.05967 -149.50321 38217 ft 435 kts 241°
2026-04-20 06:17 27.02014 -149.57459 38366 ft 437 kts 241°
2026-04-20 06:17 27.00410 -149.60352 38760 ft 435 kts 241°
2026-04-20 06:17 26.98822 -149.63212 39174 ft 431 kts 241°
2026-04-20 06:17 26.97244 -149.66054 39547 ft 427 kts 241°
2026-04-20 06:18 26.95679 -149.68874 39901 ft 425 kts 241°
2026-04-20 06:18 26.94112 -149.71695 40117 ft 425 kts 241°
2026-04-20 06:18 26.66746 -150.20758 38334 ft 424 kts 240°
2026-04-20 06:19 26.40548 -150.67173 39957 ft 454 kts 240°
2026-04-20 06:19 26.15435 -151.11224 41610 ft 440 kts 240°
2026-04-20 06:19 25.90233 -151.55053 38765 ft 405 kts 239°
2026-04-20 06:19 25.67063 -151.94932 37546 ft 364 kts 239°
2026-04-20 06:20 25.45992 -152.30961 38381 ft 378 kts 238°
2026-04-20 06:20 25.21671 -152.72155 38615 ft 418 kts 238°
2026-04-20 06:20 24.97045 -153.13502 38151 ft 428 kts 238°
2026-04-20 06:20 24.70854 -153.57125 38006 ft 423 kts 238°
2026-04-20 06:21 24.20723 -154.39376 38110 ft 412 kts 237°
2026-04-20 06:21 23.70614 -155.19639 38097 ft 410 kts 237°
2026-04-20 06:22 23.42288 -155.57749 37270 ft 455 kts 214°
2026-04-20 06:22 23.17512 -155.72820 38498 ft 408 kts 220°
2026-04-20 06:22 23.15188 -155.74642 38273 ft 415 kts 220°
2026-04-20 06:22 23.12835 -155.76487 38207 ft 418 kts 220°
2026-04-20 06:23 23.08036 -155.80114 38094 ft 421 kts 219°
2026-04-20 06:23 23.03172 -155.83649 38078 ft 420 kts 218°
2026-04-20 06:24 22.98306 -155.87136 38084 ft 419 kts 218°
2026-04-20 06:24 22.89995 -155.93078 38081 ft 418 kts 218°
2026-04-20 06:25 22.62356 -156.12801 38060 ft 416 kts 218°
2026-04-20 06:25 22.27039 -156.40138 38081 ft 401 kts 234°
2026-04-20 06:26 22.23621 -156.45006 38070 ft 412 kts 234°
2026-04-20 06:26 22.20048 -156.49927 38075 ft 418 kts 233°
2026-04-20 06:27 22.10705 -156.62132 38078 ft 415 kts 232°
2026-04-20 06:27 22.07054 -156.66848 38050 ft 401 kts 232°
2026-04-20 06:28 22.05296 -156.69119 37987 ft 388 kts 232°
2026-04-20 06:28 22.03558 -156.71369 37471 ft 396 kts 232°
2026-04-20 06:28 22.01783 -156.73668 36690 ft 399 kts 232°
2026-04-20 06:28 22.00004 -156.75970 35855 ft 400 kts 232°
2026-04-20 06:29 21.98222 -156.78275 34945 ft 403 kts 232°
2026-04-20 06:29 21.96411 -156.80617 33966 ft 408 kts 232°
2026-04-20 06:29 21.94584 -156.82977 32845 ft 412 kts 232°
2026-04-20 06:29 21.92732 -156.85368 31780 ft 417 kts 232°
2026-04-20 06:30 21.90871 -156.87770 30941 ft 417 kts 232°
2026-04-20 06:30 21.89031 -156.90143 30149 ft 421 kts 232°
2026-04-20 06:30 21.87138 -156.92585 29235 ft 430 kts 232°
2026-04-20 06:30 21.85212 -156.95069 28380 ft 433 kts 232°
2026-04-20 06:31 21.83284 -156.97551 27576 ft 430 kts 232°
2026-04-20 06:31 21.81377 -157.00006 26803 ft 425 kts 232°
2026-04-20 06:31 21.79554 -157.02355 26093 ft 422 kts 232°
2026-04-20 06:31 21.77681 -157.04767 25342 ft 419 kts 232°
2026-04-20 06:32 21.76442 -157.06364 24860 ft 418 kts 232°
2026-04-20 06:32 21.74582 -157.08760 24101 ft 417 kts 232°
2026-04-20 06:32 21.72725 -157.11151 23321 ft 416 kts 232°
2026-04-20 06:32 21.70877 -157.13530 22523 ft 413 kts 232°
2026-04-20 06:33 21.69038 -157.15895 21787 ft 410 kts 232°
2026-04-20 06:33 21.67213 -157.18241 21087 ft 407 kts 232°
2026-04-20 06:33 21.65398 -157.20572 20400 ft 405 kts 232°
2026-04-20 06:33 21.63593 -157.22891 19742 ft 403 kts 232°
2026-04-20 06:34 21.61794 -157.25201 19055 ft 401 kts 232°
2026-04-20 06:34 21.60006 -157.27497 18386 ft 400 kts 232°
2026-04-20 06:34 21.56469 -157.32035 16931 ft 396 kts 231°
2026-04-20 06:35 21.54706 -157.34296 16256 ft 393 kts 231°
2026-04-20 06:35 21.52960 -157.36533 15603 ft 389 kts 231°
2026-04-20 06:35 21.51228 -157.38752 14953 ft 386 kts 231°
2026-04-20 06:35 21.49504 -157.40959 14309 ft 383 kts 231°
2026-04-20 06:36 21.47795 -157.43146 13598 ft 382 kts 231°
2026-04-20 06:36 21.46091 -157.45328 12896 ft 379 kts 231°
2026-04-20 06:36 21.44409 -157.47478 12249 ft 374 kts 230°
2026-04-20 06:36 21.42742 -157.49610 11615 ft 371 kts 230°
2026-04-20 06:37 21.41088 -157.51723 11003 ft 367 kts 230°
2026-04-20 06:37 21.39475 -157.53782 10814 ft 353 kts 230°
2026-04-20 06:37 21.37923 -157.55762 10616 ft 339 kts 230°
2026-04-20 06:37 21.36439 -157.57655 10481 ft 325 kts 230°
2026-04-20 06:38 21.35016 -157.59471 10332 ft 312 kts 230°
2026-04-20 06:38 21.33649 -157.61212 10203 ft 299 kts 230°
2026-04-20 06:38 21.32336 -157.62885 10078 ft 286 kts 230°
2026-04-20 06:38 21.31116 -157.64439 9894 ft 260 kts 230°
2026-04-20 06:39 21.29969 -157.65898 9227 ft 255 kts 230°
2026-04-20 06:39 21.28827 -157.67350 8277 ft 262 kts 229°
2026-04-20 06:39 21.27635 -157.68866 7346 ft 269 kts 229°
2026-04-20 06:39 21.26570 -157.70476 6876 ft 257 kts 248°
2026-04-20 06:40 21.26176 -157.72316 6612 ft 259 kts 262°
2026-04-20 06:40 21.25883 -157.74356 6321 ft 289 kts 262°
2026-04-20 06:40 21.25561 -157.76525 5635 ft 299 kts 262°
2026-04-20 06:40 21.25228 -157.78727 4939 ft 295 kts 261°
2026-04-20 06:41 21.24912 -157.80795 4731 ft 266 kts 261°
2026-04-20 06:41 21.24629 -157.82650 4536 ft 241 kts 261°
2026-04-20 06:41 21.24375 -157.84314 4517 ft 212 kts 261°
2026-04-20 06:41 21.24143 -157.85840 4377 ft 204 kts 261°
2026-04-20 06:42 21.23918 -157.87315 4161 ft 197 kts 261°
2026-04-20 06:42 21.23702 -157.88735 3986 ft 189 kts 261°
2026-04-20 06:42 21.23491 -157.90117 3902 ft 198 kts 261°
2026-04-20 06:42 21.23267 -157.91588 3642 ft 197 kts 261°
2026-04-20 06:43 21.23053 -157.92992 3507 ft 183 kts 261°
2026-04-20 06:43 21.22851 -157.94316 3497 ft 183 kts 261°
2026-04-20 06:43 21.22642 -157.95679 3414 ft 182 kts 261°
2026-04-20 06:43 21.22443 -157.96981 3342 ft 171 kts 261°
2026-04-20 06:44 21.22249 -157.98250 3326 ft 175 kts 261°
2026-04-20 06:44 21.22052 -157.99532 3265 ft 175 kts 261°
2026-04-20 06:44 21.21865 -158.00754 3144 ft 174 kts 261°
2026-04-20 06:44 21.21800 -158.02024 2895 ft 168 kts 285°
2026-04-20 06:45 21.22500 -158.02961 2851 ft 177 kts 334°
2026-04-20 06:45 21.23722 -158.03215 2608 ft 176 kts 14°
2026-04-20 06:45 21.24604 -158.02533 2520 ft 146 kts 55°
2026-04-20 06:45 21.25200 -158.01652 2484 ft 148 kts 53°
2026-04-20 06:46 21.25831 -158.00759 2270 ft 152 kts 52°
2026-04-20 06:46 21.26463 -157.99897 2025 ft 142 kts 53°
2026-04-20 06:46 21.27063 -157.99052 1657 ft 143 kts 53°
2026-04-20 06:46 21.27639 -157.98233 1390 ft 139 kts 55°
2026-04-20 06:47 21.28208 -157.97396 1240 ft 135 kts 53°
2026-04-20 06:47 21.28796 -157.96640 1152 ft 138 kts 51°
2026-04-20 06:47 21.29395 -157.95777 1035 ft 146 kts 54°
2026-04-20 06:47 21.30024 -157.94898 649 ft 145 kts 53°
2026-04-20 06:48 21.30620 -157.94061 406 ft 141 kts 55°
2026-04-20 06:48 21.31214 -157.93214 267 ft 150 kts 53°
2026-04-20 06:48 21.31831 -157.92339 44 ft 143 kts 53°
2026-04-20 06:48 21.32352 -157.91602 14 ft 85 kts 52°
2026-04-20 06:49 21.32552 -157.91333 14 ft 13 kts 23°
2026-04-20 06:49 21.32655 -157.91316 15 ft 0 kts 359°
2026-04-20 06:49 21.32664 -157.91315 15 ft 4 kts
2026-04-20 06:49 21.32735 -157.91304 16 ft 12 kts
2026-04-20 06:50 21.32770 -157.91352 16 ft 14 kts 278°
2026-04-20 06:50 21.32774 -157.91509 16 ft 28 kts 271°
2026-04-20 06:50 21.32783 -157.91704 18 ft 16 kts 278°
2026-04-20 06:50 21.32848 -157.91748 18 ft 13 kts 16°
2026-04-20 06:51 21.32892 -157.91709 19 ft 0 kts 42°